EW6571 Weather Reports


Display with metric or nautical units.
time (UTC)temp
F
wind
direction
speed
MPH
gust
MPH
rain 1hr
in
rain 24hr
in
rain mn
in
humidity
%
barometer
mb
20260904163053 68 197 3.0 6.0 0.00 0.00 0.00 27 1005.6
20260904161550 67 205 2.0 8.0 0.00 0.00 0.00 30 1005.6
20260904160040 65 215 1.0 6.0 0.00 0.00 0.00 29 1005.8
20260904154535 64 213 2.0 8.0 0.00 0.00 0.00 31 1005.7
20260904153052 63 199 4.0 8.0 0.00 0.00 0.00 30 1005.7
20260904151537 62 218 4.0 11.0 0.00 0.00 0.00 32 1005.8
20260904150029 57 240 1.0 4.0 0.00 0.00 0.00 53 1005.7
20260904144523 58 240 2.0 4.0 0.00 0.00 0.00 55 1005.8
20260904143021 54 203 1.0 3.0 0.00 0.00 0.00 60 1005.9
20260904141517 51 203 1.0 3.0 0.00 0.00 0.00 57 1005.8
20260904140015 56 202 2.0 5.0 0.00 0.00 0.00 45 1005.8
20260904134510 53 202 1.0 3.0 0.00 0.00 0.00 49 1005.6
20260904133010 49 202 1.0 6.0 0.00 0.00 0.00 57 1005.4
20260904131506 48 204 5.0 7.0 0.00 0.00 0.00 58 1005.2
20260904130005 49 202 5.0 7.0 0.00 0.00 0.00 56 1004.9
20260904124504 49 198 5.0 8.0 0.00 0.00 0.00 56 1004.8
20260904123101 50 199 5.0 8.0 0.00 0.00 0.00 52 1004.6
20260904121600 53 200 4.0 7.0 0.00 0.00 0.00 43 1004.6
20260904120107 54 199 2.0 4.0 0.00 0.00 0.00 41 1004.5
20260904114555 53 199 3.0 5.0 0.00 0.00 0.00 44 1004.6
20260904113051 49 199 2.0 7.0 0.00 0.00 0.00 56 1004.7
20260904111550 47 198 6.0 8.0 0.00 0.00 0.00 62 1004.6
20260904110047 48 200 6.0 8.0 0.00 0.00 0.00 61 1004.5
20260904104546 48 195 6.0 8.0 0.00 0.00 0.00 61 1004.2
20260904103045 48 190 6.0 8.0 0.00 0.00 0.00 61 1004.1
20260904101542 48 202 5.0 7.0 0.00 0.00 0.00 59 1003.9
20260904100040 48 226 3.0 5.0 0.00 0.00 0.00 58 1003.8
20260904094539 47 232 2.0 5.0 0.00 0.00 0.00 61 1003.7
20260904093038 47 233 1.0 2.0 0.00 0.00 0.00 62 1003.6
20260904091536 46 233 1.0 4.0 0.00 0.00 0.00 66 1003.5
20260904090035 46 233 3.0 5.0 0.00 0.00 0.00 68 1003.4
20260904084532 46 233 0.0 2.0 0.00 0.00 0.00 66 1003.2
20260904083028 49 233 0.0 5.0 0.00 0.00 0.00 62 1003.0
20260904081527 49 233 1.0 5.0 0.00 0.00 0.00 60 1002.9
20260904080038 48 233 2.0 4.0 0.00 0.00 0.00 63 1002.9
20260904074526 48 233 2.0 4.0 0.00 0.00 0.00 62 1002.9
20260904073023 50 186 1.0 5.0 0.00 0.00 0.00 58 1002.9
20260904071520 49 186 0.0 2.0 0.00 0.00 0.00 59 1002.8
20260904070019 50 186 2.0 4.0 0.00 0.00 0.00 60 1002.9
20260904064517 50 186 2.0 5.0 0.00 0.00 0.00 59 1002.9
20260904063016 50 186 1.0 3.0 0.00 0.00 0.00 57 1002.7
20260904061515 50 186 1.0 4.0 0.00 0.00 0.00 60 1002.9
20260904060013 50 186 2.0 4.0 0.00 0.00 0.00 58 1002.8
20260904054525 50 186 1.0 5.0 0.00 0.00 0.00 60 1003.0
20260904053009 50 186 4.0 5.0 0.00 0.00 0.00 62 1003.2
20260904051510 51 186 1.0 4.0 0.00 0.00 0.00 56 1003.3
20260904050007 52 186 1.0 3.0 0.00 0.00 0.00 53 1003.4
20260904044512 52 186 4.0 6.0 0.00 0.00 0.00 56 1003.4
20260904043006 53 184 4.0 6.0 0.00 0.00 0.00 56 1003.5
20260904041505 55 183 2.0 4.0 0.00 0.00 0.00 50 1003.6
20260904040004 57 183 2.0 5.0 0.00 0.00 0.00 43 1003.6
20260904034505 54 183 1.0 5.0 0.00 0.00 0.00 56 1003.7
20260904033007 54 183 2.0 4.0 0.00 0.00 0.00 54 1003.8
20260904031503 54 183 2.0 6.0 0.00 0.00 0.00 54 1003.9
20260904030003 56 183 3.0 6.0 0.00 0.00 0.00 50 1003.8
20260904024502 58 188 3.0 5.0 0.00 0.00 0.00 40 1003.7
20260904023002 58 188 3.0 6.0 0.00 0.00 0.00 42 1003.6
20260904021501 58 219 3.0 5.0 0.00 0.00 0.00 46 1003.5
20260904020001 59 219 4.0 8.0 0.00 0.00 0.00 47 1003.5
20260904014501 60 215 3.0 5.0 0.00 0.00 0.00 44 1003.5
20260904013122 61 215 3.0 5.0 0.00 0.00 0.00 47 1003.4
20260904011644 66 225 4.0 6.0 0.00 0.00 0.00 40 1003.2
20260904010059 68 244 2.0 7.0 0.00 0.00 0.00 32 1003.2
20260904004559 70 214 2.0 4.0 0.00 0.00 0.00 36 1003.1
20260904003057 73 247 4.0 8.0 0.00 0.00 0.00 27 1003.2
20260904001555 73 236 0.0 8.0 0.00 0.00 0.00 24 1003.3
20260904000056 73 274 1.0 8.0 0.00 0.00 0.00 23 1003.4
20260903234555 73 263 7.0 12.0 0.00 0.00 0.00 23 1003.5
20260903233053 73 242 3.0 9.0 0.00 0.00 0.00 25 1003.6
20260903231551 72 263 3.0 7.0 0.00 0.00 0.00 24 1003.6
20260903230052 72 126 2.0 8.0 0.00 0.00 0.00 24 1003.9
20260903224550 73 190 5.0 10.0 0.00 0.00 0.00 23 1003.9
20260903223049 73 229 6.0 13.0 0.00 0.00 0.00 23 1004.0
20260903221548 72 250 7.0 12.0 0.00 0.00 0.00 24 1004.1
20260903220049 73 250 4.0 15.0 0.00 0.00 0.00 22 1004.2
20260903214551 73 219 5.0 11.0 0.00 0.00 0.00 22 1004.2
20260903213046 73 266 8.0 16.0 0.00 0.00 0.00 23 1004.4
20260903211550 73 270 2.0 10.0 0.00 0.00 0.00 24 1004.6
20260903210056 73 157 6.0 11.0 0.00 0.00 0.00 23 1004.9
20260903204558 72 274 5.0 15.0 0.00 0.00 0.00 25 1005.0
20260903203039 71 252 2.0 14.0 0.00 0.00 0.00 26 1005.1
20260903201539 71 252 6.0 10.0 0.00 0.00 0.00 26 1005.4
20260903200137 71 298 6.0 12.0 0.00 0.00 0.00 27 1005.3
20260903194537 69 92 5.0 13.0 0.00 0.00 0.00 26 1005.6
20260903193033 69 74 7.0 12.0 0.00 0.00 0.00 27 1005.8
20260903191532 68 132 4.0 9.0 0.00 0.00 0.00 28 1006.0
20260903190029 66 159 3.0 6.0 0.00 0.00 0.00 27 1006.2
20260903184528 68 275 5.0 9.0 0.00 0.00 0.00 25 1006.2
20260903183025 67 248 5.0 9.0 0.00 0.00 0.00 28 1006.5
20260903181521 66 225 2.0 7.0 0.00 0.00 0.00 31 1006.6
20260903180022 65 46 3.0 5.0 0.00 0.00 0.00 35 1006.7
20260903174518 63 230 2.0 4.0 0.00 0.01 0.00 45 1006.8
20260903173009 61 202 0.0 4.0 0.00 0.01 0.00 47 1007.0
20260903171506 60 202 1.0 3.0 0.00 0.01 0.00 48 1007.2
20260903170001 58 202 0.0 2.0 0.00 0.01 0.00 48 1007.1
20260903164600 58 202 0.0 3.0 0.00 0.01 0.00 47 1007.2